EA5LR-10 Weather Reports


time (UTC)temp
F
wind
direction
speed
knots
gust
knots
rain 1hr
in
rain 24hr
in
rain mn
in
humidity
%
barometer
mb
20260507142034 64 72 1.7 2.6 0.00 0.20 8.26 92 1011.7
20260507141534 64 73 0.9 1.7 0.00 0.20 8.26 92 1011.8
20260507141034 64 78 0.9 2.6 0.05 0.20 8.26 92 1011.7
20260507140534 63 78 0.9 1.7 0.05 0.20 8.26 93 1011.7
20260507140034 64 62 0.0 0.0 0.00 0.19 8.26 93 1011.6
20260507135534 64 20 2.6 2.6 0.00 0.19 8.26 93 1011.6
20260507135034 64 36 0.9 0.9 0.00 0.19 8.26 93 1011.7
20260507134534 64 35 0.9 0.9 0.12 0.19 8.26 93 1011.7
20260507134034 63 45 0.9 0.9 0.19 0.19 8.26 92 1011.7
20260507133534 62 73 0.9 1.7 0.26 0.17 8.26 92 1011.9
20260507133034 63 115 2.6 4.3 0.24 0.16 8.26 92 1012.2
20260507132534 64 83 0.9 1.7 0.24 0.14 8.26 92 1012.3
20260507132034 64 85 3.5 5.2 0.24 0.12 8.26 91 1012.4
20260507131534 64 78 1.7 2.6 0.24 0.10 8.26 91 1012.1
20260507131034 64 87 5.2 7.8 0.19 0.08 8.26 90 1012.4
20260507130534 64 61 4.3 7.0 0.07 0.06 8.26 89 1012.4
20260507130034 64 63 1.7 2.6 0.05 0.05 8.26 89 1012.4
20260507125534 64 56 4.3 5.2 0.12 0.05 8.26 89 1012.2
20260507125034 64 63 5.2 7.0 0.19 0.04 8.26 88 1012.4
20260507124534 65 83 1.7 1.7 0.19 0.03 8.26 87 1012.5
20260507124034 65 47 4.3 5.2 0.07 0.01 8.26 86 1012.4
20260507123534 65 28 4.3 7.8 0.00 0.00 8.26 85 1012.4
20260507123034 66 64 1.7 1.7 0.00 0.00 8.26 83 1012.6
20260507122534 66 68 7.0 11.3 0.00 0.00 8.26 81 1012.6
20260507122034 66 60 3.5 5.2 0.00 0.00 8.26 81 1012.5
20260507121534 66 75 2.6 5.2 0.00 0.00 8.26 81 1012.4
20260507121034 66 46 2.6 5.2 0.00 0.00 8.26 80 1012.2
20260507120534 66 98 2.6 2.6 0.00 0.00 8.26 80 1012.5
20260507120034 66 82 1.7 4.3 0.00 0.00 8.26 80 1012.5
20260507115534 66 54 5.2 7.0 0.00 0.00 8.26 80 1012.8
20260507115034 66 73 4.3 7.8 0.00 0.00 8.26 79 1012.5
20260507114534 66 72 4.3 7.0 0.00 0.00 8.26 78 1012.8
20260507114034 66 62 0.9 2.6 0.00 0.00 8.26 78 1012.7
20260507113534 66 56 4.3 5.2 0.00 0.00 8.26 78 1012.5
20260507113034 66 39 1.7 2.6 0.00 0.00 8.26 78 1012.7
20260507112534 67 63 6.1 7.8 0.00 0.00 8.26 77 1012.6
20260507112034 67 60 0.0 1.7 0.00 0.00 8.26 77 1012.6
20260507111534 67 82 5.2 8.7 0.00 0.00 8.26 77 1012.8
20260507111034 67 128 2.6 6.1 0.00 0.00 8.26 78 1013.0
20260507110534 66 94 5.2 7.0 0.00 0.00 8.26 78 1012.9
20260507110034 67 76 4.3 5.2 0.00 0.00 8.26 78 1012.8
20260507105534 67 74 1.7 4.3 0.00 0.00 8.26 78 1012.9
20260507105034 66 35 1.7 1.7 0.00 0.00 8.26 79 1012.9
20260507104534 66 69 1.7 2.6 0.00 0.00 8.26 80 1013.3
20260507104034 66 64 6.1 7.8 0.00 0.00 8.26 80 1013.1
20260507103534 66 86 5.2 7.0 0.00 0.00 8.26 80 1013.1
20260507103034 66 63 2.6 4.3 0.00 0.00 8.26 80 1013.1
20260507102534 66 47 1.7 4.3 0.00 0.00 8.26 80 1012.9
20260507102034 66 99 6.1 8.7 0.00 0.00 8.26 81 1013.2
20260507101534 66 63 5.2 7.8 0.00 0.00 8.26 81 1013.0
20260507101034 66 76 6.1 9.6 0.00 0.00 8.26 81 1013.1
20260507100534 65 95 5.2 6.1 0.00 0.00 8.26 81 1013.1
20260507100033 66 89 3.5 7.0 0.00 0.00 8.26 81 1013.1
20260507095534 66 87 3.5 5.2 0.00 0.00 8.26 81 1013.0
20260507095034 66 56 3.5 4.3 0.00 0.00 8.26 81 1013.0
20260507094534 66 93 4.3 7.0 0.00 0.00 8.26 81 1012.9
20260507094034 66 90 3.5 4.3 0.00 0.00 8.26 81 1012.8
20260507093034 66 70 3.5 5.2 0.00 0.00 8.26 81 1013.1
20260507092034 66 90 3.5 5.2 0.00 0.00 8.26 80 1013.4
20260507091534 66 116 1.7 2.6 0.00 0.00 8.26 80 1013.5
20260507091034 66 55 4.3 7.0 0.00 0.00 8.26 79 1013.3
20260507090533 66 91 7.0 8.7 0.00 0.00 8.26 79 1013.1
20260507090034 66 65 4.3 6.1 0.00 0.00 8.26 79 1013.1
20260507085534 66 87 5.2 12.2 0.00 0.00 8.26 78 1013.2
20260507084909 66 65 1.7 2.6 0.00 0.00 8.26 78 1012.9
20260507084409 66 48 6.1 7.8 0.00 0.00 8.26 78 1013.1
20260507083909 66 65 7.0 9.6 0.00 0.00 8.26 77 1013.1
20260507082959 66 95 1.7 4.3 0.00 0.00 8.26 78 1013.0
20260507082421 66 68 4.3 6.1 0.00 0.00 8.26 78 1013.0
20260507081921 66 62 3.5 6.1 0.00 0.00 8.26 79 1013.2
20260507081421 66 44 5.2 7.8 0.00 0.00 8.26 79 1012.8
20260507080921 66 65 3.5 6.1 0.00 0.00 8.26 80 1013.0
20260507080421 66 53 0.9 0.9 0.00 0.00 8.26 80 1013.1
20260507075921 66 76 1.7 2.6 0.00 0.00 8.26 80 1013.1
20260507075421 66 59 2.6 4.3 0.00 0.00 8.26 80 1013.0
20260507074921 66 42 5.2 7.8 0.00 0.00 8.26 80 1012.9
20260507074421 65 88 4.3 6.1 0.00 0.00 8.26 81 1013.1
20260507073921 65 93 3.5 7.0 0.00 0.00 8.26 81 1013.1
20260507073421 65 69 2.6 5.2 0.00 0.00 8.26 81 1012.9
20260507072921 65 78 0.9 1.7 0.00 0.00 8.26 81 1013.0
20260507070421 65 325 2.6 4.3 0.00 0.00 8.26 81 1012.7
20260507065921 65 99 10.4 14.8 0.00 0.00 8.26 81 1012.5
20260507065421 65 68 7.8 9.6 0.00 0.00 8.26 81 1012.5
20260507064921 65 68 3.5 6.1 0.00 0.00 8.26 81 1012.3
20260507064421 65 65 0.9 1.7 0.00 0.00 8.26 82 1012.4
20260507063921 65 75 3.5 7.0 0.00 0.00 8.26 82 1012.2
20260507063421 65 62 2.6 4.3 0.00 0.00 8.26 82 1012.2
20260507062921 65 71 4.3 6.1 0.00 0.00 8.26 82 1012.4
20260507062421 65 85 4.3 6.1 0.00 0.00 8.26 83 1012.3
20260507061921 65 68 4.3 5.2 0.00 0.00 8.26 83 1012.4
20260507061421 65 94 3.5 6.1 0.00 0.00 8.26 84 1012.3
20260507060921 65 93 4.3 7.8 0.00 0.00 8.26 84 1012.1
20260507060421 64 56 1.7 1.7 0.00 0.00 8.26 85 1012.2
20260507055421 64 64 5.2 6.1 0.00 0.00 8.26 86 1012.5
20260507054921 64 37 1.7 2.6 0.00 0.00 8.26 86 1012.3
20260507054421 64 75 4.3 5.2 0.00 0.00 8.26 86 1012.4
20260507053921 64 77 5.2 7.8 0.00 0.00 8.26 87 1012.5
20260507053421 64 74 0.9 0.9 0.00 0.00 8.26 87 1012.4
20260507052922 64 76 1.7 4.3 0.00 0.00 8.26 87 1012.2
20260507052421 64 86 3.5 7.0 0.00 0.00 8.26 87 1012.3
20260507051921 64 65 0.9 0.9 0.00 0.00 8.26 87 1012.1
20260507051421 64 61 4.3 5.2 0.00 0.00 8.26 87 1012.1
20260507050921 65 60 3.5 5.2 0.00 0.00 8.26 87 1012.1
20260507045421 64 90 3.5 4.3 0.00 0.00 8.26 86 1011.9
20260507044921 64 69 6.1 7.8 0.00 0.00 8.26 86 1011.9
20260507044420 64 59 1.7 2.6 0.00 0.00 8.26 86 1011.7
20260507043920 64 33 3.5 5.2 0.00 0.00 8.26 85 1011.8
20260507043421 64 82 2.6 2.6 0.00 0.00 8.26 85 1011.9
20260507042921 64 69 4.3 6.1 0.00 0.00 8.26 86 1011.9
20260507042421 64 58 1.7 1.7 0.00 0.00 8.26 86 1011.9
20260507041921 64 91 0.9 1.7 0.00 0.00 8.26 86 1012.0
20260507041420 64 67 4.3 7.8 0.00 0.00 8.26 86 1011.9
20260507040921 64 62 3.5 5.2 0.00 0.00 8.26 86 1011.8
20260507040421 64 87 4.3 6.1 0.00 0.00 8.26 86 1011.9
20260507035921 64 57 0.9 1.7 0.00 0.00 8.26 86 1011.8
20260507035421 64 29 0.9 0.9 0.00 0.00 8.26 86 1011.7
20260507034921 64 76 2.6 5.2 0.00 0.00 8.26 86 1011.8
20260507034421 64 73 2.6 2.6 0.00 0.00 8.26 86 1011.5
20260507033921 64 66 5.2 7.0 0.00 0.00 8.26 86 1011.7
20260507033421 64 61 5.2 6.1 0.00 0.00 8.26 85 1011.7
20260507032921 64 41 0.9 1.7 0.00 0.00 8.26 85 1011.5
20260507032421 64 41 1.7 2.6 0.00 0.00 8.26 85 1011.8
20260507031921 64 56 5.2 7.0 0.00 0.00 8.26 85 1011.8
20260507031421 64 70 1.7 2.6 0.00 0.00 8.26 84 1011.8
20260507030921 64 67 1.7 4.3 0.00 0.00 8.26 84 1011.8
20260507030421 65 61 0.9 0.9 0.00 0.00 8.26 84 1012.0
20260507025920 65 69 2.6 2.6 0.00 0.00 8.26 84 1012.0
20260507025420 65 53 3.5 6.1 0.00 0.00 8.26 83 1011.9
20260507024920 65 33 1.7 2.6 0.00 0.00 8.26 83 1012.0
20260507024421 65 56 3.5 6.1 0.00 0.00 8.26 83 1011.8
20260507023920 65 60 2.6 4.3 0.00 0.00 8.26 83 1012.0
20260507023424 65 63 4.3 7.0 0.00 0.00 8.26 83 1012.1
20260507022921 65 63 5.2 6.1 0.00 0.00 8.26 83 1012.0
20260507022420 65 66 0.9 0.9 0.00 0.00 8.26 82 1012.1
20260507021920 65 81 3.5 4.3 0.00 0.00 8.26 82 1012.0
20260507021421 65 70 2.6 5.2 0.00 0.00 8.26 82 1012.2
20260507020920 65 65 0.9 1.7 0.00 0.00 8.26 81 1012.2
20260507020422 65 45 2.6 4.3 0.00 0.00 8.26 81 1012.2
20260507015920 65 58 0.9 1.7 0.00 0.00 8.26 81 1012.3
20260507015422 65 81 1.7 4.3 0.00 0.00 8.26 81 1012.4
20260507014921 65 52 1.7 2.6 0.00 0.00 8.26 81 1012.6
20260507014420 65 64 1.7 1.7 0.00 0.00 8.26 81 1012.6
20260507013920 65 76 2.6 2.6 0.00 0.00 8.26 81 1012.8
20260507013424 65 38 0.9 1.7 0.00 0.00 8.26 81 1012.7
20260507012920 65 61 1.7 2.6 0.00 0.00 8.26 81 1012.6
20260507012421 65 64 2.6 5.2 0.00 0.00 8.26 81 1012.5
20260507011920 65 59 1.7 1.7 0.00 0.00 8.26 81 1012.2
20260507011421 65 82 4.3 5.2 0.00 0.00 8.26 81 1012.3
20260507010920 65 78 1.7 2.6 0.00 0.00 8.26 81 1012.7
20260507010420 65 71 0.9 1.7 0.00 0.00 8.26 81 1012.6
20260507005920 65 64 0.9 0.9 0.00 0.00 8.26 82 1012.5
20260507005420 65 60 0.9 1.7 0.00 0.00 8.26 83 1012.6
20260507004920 65 50 0.9 0.9 0.00 0.00 8.26 83 1012.5
20260507004420 65 33 2.6 2.6 0.00 0.00 8.26 83 1012.5
20260507003920 65 55 0.9 0.9 0.00 0.00 8.26 83 1012.4
20260507003420 65 33 0.9 1.7 0.00 0.00 8.26 83 1012.5
20260507002920 65 87 0.9 1.7 0.00 0.00 8.26 82 1012.8
20260507002421 65 98 3.5 4.3 0.00 0.00 8.26 82 1012.5
20260507001920 65 40 1.7 2.6 0.00 0.00 8.26 82 1012.4
20260507001420 65 74 3.5 5.2 0.00 0.00 8.26 82 1012.4
20260507000920 65 75 3.5 6.1 0.00 0.00 8.26 82 1012.6
20260507000422 65 63 1.7 2.6 0.00 0.00 8.26 82 1012.5
20260506235920 65 77 0.9 0.9 0.00 0.00 8.26 82 1012.6
20260506235420 65 58 2.6 5.2 0.00 0.00 8.26 82 1013.0
20260506234920 65 73 0.9 0.9 0.00 0.00 8.26 82 1012.8
20260506234421 65 64 2.6 2.6 0.00 0.00 8.26 82 1013.0
20260506233420 65 70 0.0 0.0 0.00 0.00 8.26 82 1013.1
20260506232920 65 100 2.6 2.6 0.00 0.00 8.26 82 1012.9
20260506232420 65 67 0.9 1.7 0.00 0.00 8.26 82 1012.9
20260506231920 65 102 0.9 0.9 0.00 0.00 8.26 81 1013.1
20260506231420 65 95 2.6 2.6 0.00 0.00 8.26 81 1013.1
20260506230920 65 64 0.9 1.7 0.00 0.00 8.26 81 1013.0
20260506230420 65 109 2.6 4.3 0.00 0.00 8.26 81 1013.0
20260506225920 65 80 3.5 4.3 0.00 0.00 8.26 82 1013.2
20260506225420 65 87 2.6 2.6 0.00 0.00 8.26 82 1013.1
20260506224920 65 79 2.6 2.6 0.00 0.00 8.26 82 1013.1
20260506224420 65 95 0.9 1.7 0.00 0.00 8.26 82 1013.1
20260506223923 65 83 0.9 1.7 0.00 0.00 8.26 82 1013.2
20260506223420 65 74 0.9 1.7 0.00 0.00 8.26 81 1013.0
20260506222920 65 107 0.0 0.0 0.00 0.00 8.26 81 1013.0
20260506222420 65 62 0.9 0.9 0.00 0.00 8.26 82 1012.9
20260506221920 65 65 2.6 2.6 0.00 0.00 8.26 82 1012.9
20260506221420 65 97 2.6 4.3 0.00 0.00 8.26 81 1013.2
20260506220920 65 81 1.7 1.7 0.00 0.00 8.26 81 1013.2
20260506220420 65 116 0.9 0.9 0.00 0.00 8.26 82 1013.2
20260506215920 65 89 1.7 2.6 0.00 0.00 8.26 82 1013.1
20260506215420 65 119 1.7 2.6 0.00 0.00 8.26 82 1013.2
20260506214920 65 112 2.6 4.3 0.00 0.00 8.26 83 1013.5
20260506214420 65 113 1.7 1.7 0.00 0.00 8.26 82 1013.5
20260506213920 65 99 2.6 2.6 0.00 0.00 8.26 82 1013.4
20260506213420 65 85 2.6 2.6 0.00 0.00 8.26 82 1013.3
20260506212923 66 77 4.3 6.1 0.00 0.00 8.26 82 1013.5
20260506212420 66 88 0.9 1.7 0.00 0.00 8.26 82 1013.3
20260506211920 66 89 1.7 1.7 0.00 0.00 8.26 82 1013.4
20260506211420 66 124 0.0 0.9 0.00 0.00 8.26 81 1013.6
20260506210920 65 104 1.7 1.7 0.00 0.00 8.26 82 1013.6
20260506210421 66 92 1.7 1.7 0.00 0.00 8.26 82 1013.6
20260506205920 66 80 1.7 2.6 0.00 0.00 8.26 83 1013.5
20260506205420 65 117 4.3 6.1 0.00 0.00 8.26 83 1013.5
20260506204923 65 83 1.7 1.7 0.00 0.00 8.26 83 1013.3
20260506204421 65 83 1.7 1.7 0.00 0.00 8.26 84 1013.4
20260506203920 66 93 2.6 4.3 0.00 0.00 8.26 84 1013.3
20260506203420 66 130 2.6 2.6 0.00 0.00 8.26 84 1013.3
20260506202920 66 83 4.3 5.2 0.00 0.00 8.26 84 1013.3
20260506202420 66 92 0.9 0.9 0.00 0.00 8.26 84 1013.3
20260506201923 66 120 2.6 2.6 0.00 0.00 8.26 84 1013.1
20260506201420 66 115 3.5 5.2 0.00 0.00 8.26 84 1013.0
20260506200920 66 108 3.5 5.2 0.00 0.00 8.26 84 1013.0
20260506200420 66 84 3.5 5.2 0.00 0.00 8.26 84 1012.9
20260506195920 66 99 2.6 4.3 0.00 0.00 8.26 84 1012.8
20260506195420 66 96 1.7 1.7 0.00 0.00 8.26 84 1012.7
20260506194920 66 109 3.5 4.3 0.00 0.00 8.26 84 1012.6
20260506194420 66 79 2.6 5.2 0.00 0.00 8.26 84 1012.5
20260506193920 66 87 1.7 1.7 0.00 0.00 8.26 83 1012.3
20260506193420 66 74 0.9 1.7 0.00 0.00 8.26 83 1012.5
20260506192920 66 100 0.9 0.9 0.00 0.00 8.26 84 1012.5
20260506192420 66 68 1.7 2.6 0.00 0.00 8.26 84 1012.4
20260506191920 66 83 2.6 2.6 0.00 0.00 8.26 84 1012.3
20260506191421 66 66 4.3 5.2 0.00 0.00 8.26 84 1012.3
20260506190920 66 89 5.2 7.0 0.00 0.00 8.26 84 1012.3
20260506190420 66 88 4.3 5.2 0.00 0.00 8.26 83 1012.2
20260506185920 66 60 0.9 0.9 0.00 0.00 8.26 82 1012.2
20260506185420 67 85 1.7 1.7 0.00 0.00 8.26 82 1012.3
20260506184920 66 66 4.3 5.2 0.00 0.00 8.26 81 1012.0
20260506184420 66 121 6.1 7.8 0.00 0.00 8.26 80 1012.2
20260506183920 66 98 5.2 7.0 0.00 0.00 8.26 80 1012.0
20260506183420 66 67 5.2 6.1 0.00 0.00 8.26 80 1012.0
20260506182920 66 124 0.9 1.7 0.00 0.00 8.26 80 1012.0
20260506182420 66 93 7.8 8.7 0.00 0.00 8.26 80 1011.9
20260506181920 66 88 5.2 6.1 0.00 0.00 8.26 81 1011.9
20260506181420 67 95 6.1 7.0 0.00 0.00 8.26 81 1011.9
20260506180920 66 85 1.7 1.7 0.00 0.00 8.26 82 1011.9
20260506180420 67 116 4.3 5.2 0.00 0.00 8.26 82 1012.0
20260506175920 67 63 5.2 7.0 0.00 0.00 8.26 81 1012.0
20260506175420 67 92 4.3 6.1 0.00 0.00 8.26 81 1011.8